Location: Lanoux
(43.1180°N, 1.4255°E)
Time: 21:48:55
(UTC+00:00)

Helios 1A Rocket - Visible Passes

Search period start: 16 March 2026 00:00
Search period end: 26 March 2026 00:00
Orbit: 418 x 428 km, 98.3° (Epoch: 16 March)

Date Brightness Start Highest point End Pass type
(mag) Time Alt. Az. Time Alt. Az. Time Alt. Az.
16 Mar 2.2 19:18:11 10° NNE 19:21:26 62° ESE 19:24:39 10° S visible
17 Mar 3.9 18:36:04 10° NE 18:38:08 16° E 18:40:12 10° SE visible
17 Mar 4.6 20:07:30 10° N 20:10:17 26° WNW 20:13:03 10° SW visible
18 Mar 2.1 19:23:57 10° NNE 19:27:12 73° ESE 19:30:27 10° S visible
19 Mar 3.8 18:41:30 10° NE 18:43:48 18° E 18:46:06 10° SE visible
19 Mar 4.8 20:13:14 10° NNW 20:15:53 23° WNW 20:18:31 10° WSW visible
20 Mar 2.1 19:29:26 10° NNE 19:32:42 84° ESE 19:35:57 10° SSW visible
21 Mar 3.6 18:46:43 10° NE 18:49:12 20° E 18:51:40 10° SE visible
21 Mar 5.0 20:18:42 10° NNW 20:21:14 21° WNW 20:23:44 10° WSW visible
22 Mar 2.3 19:34:40 10° NNE 19:37:57 85° WNW 19:41:10 10° SSW visible
23 Mar 3.5 18:51:43 10° NE 18:54:20 22° E 18:56:56 10° SSE visible
23 Mar 5.2 20:23:56 10° NNW 20:26:18 19° WNW 20:28:39 10° WSW visible
24 Mar 6.2 05:22:09 10° ENE 05:22:37 10° ENE 05:23:04 10° NE visible
24 Mar 2.4 19:39:39 10° N 19:42:54 74° WNW 19:46:08 10° SSW visible
25 Mar 3.4 18:56:28 10° NE 18:59:12 25° E 19:01:55 10° SSE visible
25 Mar 5.3 20:28:54 10° NNW 20:31:06 17° WNW 20:33:18 10° WSW visible
